Flag for Germany Weather past 2 weeks in Schwerte, North Rhine-Westphalia, Germany

Now
61 °F

Scattered clouds.


Feels Like: 61 °F
Forecast: 51 / 61 °F
Wind: 17 mph from Southwest

Location: Dortmund / Wickede

Current Time: May 5, 2015 at 7:25:48 PM

Latest Report: May 5, 2015 at 6:50 PM


Visibility: N/A

Pressure: 29.71 "Hg

Humidity: 59%

Dew point: 46 °F

Location of SchwerteLocation

Historic Weather in Schwerte — Graph

°F

Schwerte temperature yesterday

Maximum temperature yesterday: 68 °F (at 4:50 PM)
Minimum temperature yesterday: 55 °F (at 5:20 AM)
Average temperature yesterday: 62 °F

Past Weeks' High & Low Weather Summary

 TemperatureHumidityPressure
High73 °F (May 5, 1:20 PM)94% (Apr 27, 5:20 AM)30.45 "Hg (Apr 27, 5:20 AM)
Low30 °F (Apr 28, 5:20 AM)18% (Apr 21, 4:50 PM)29.42 "Hg (May 5, 5:20 AM)
Average53 °F64%29.90 "Hg
* Reported Apr 20 6:20 PM — May 5 6:20 PM, Schwerte, Weather by CustomWeather, © 2015

Note: Actual official high and low records may vary slightly from our data, if they occured in-between our weather recording intervals... More about our weather records

Advertising

Schwerte weather history for previous 24 hours

 ConditionsComfort  
Time TempWeatherWind HumidityBarometerVisibility
6:20 PM
Tue, May 5
61 °FSunny.21 mph63%29.71 "Hg10 mi
5:50 PM59 °FSprinkles. Scattered clouds.23 mph63%29.68 "HgN/A
5:20 PM59 °FSunny.25 mph63%29.68 "Hg10 mi
4:50 PM59 °FScattered showers. Clear.22 mph72%29.65 "HgN/A
4:20 PM61 °FSprinkles. Broken clouds.25 mph72%29.62 "HgN/A
3:50 PM66 °FSprinkles. Clear.32 mph56%29.56 "Hg6 mi
3:20 PM72 °FSunny.29 mph47%29.50 "Hg10 mi
2:50 PM72 °FSunny.24 mph47%29.50 "Hg10 mi
2:20 PM72 °FMild.26 mph50%29.47 "HgN/A
1:50 PM72 °FScattered clouds.24 mph50%29.47 "HgN/A
1:20 PM73 °FPassing clouds.23 mph57%29.47 "HgN/A
12:50 PM72 °FSunny.24 mph61%29.47 "Hg10 mi
12:20 PM70 °FSunny.23 mph64%29.47 "Hg10 mi
11:50 AM68 °FSunny.16 mph69%29.47 "Hg10 mi
11:20 AM64 °FSprinkles. Passing clouds.15 mph73%29.50 "HgN/A
10:50 AM66 °FScattered showers. Clear.12 mph73%29.47 "HgN/A
10:20 AM64 °FSunny.8 mph78%29.47 "Hg10 mi
9:50 AM63 °FSprinkles. Partly sunny.17 mph77%29.50 "HgN/A
9:20 AM64 °FMild.13 mph73%29.47 "HgN/A
8:50 AM64 °FScattered showers. Clear.16 mph73%29.50 "HgN/A
8:20 AM64 °FSprinkles. Partly sunny.17 mph68%29.47 "HgN/A
7:50 AM66 °FSprinkles. Clear.15 mph64%29.45 "HgN/A
7:20 AM64 °FSunny.16 mph68%29.45 "Hg10 mi
6:50 AM64 °FPassing clouds.12 mph68%29.45 "HgN/A
6:20 AM63 °FClear.14 mph73%29.45 "Hg10 mi
5:20 AM64 °FClear.15 mph68%29.42 "Hg10 mi
10:50 PM
Mon, May 4
61 °FClear.5 mph68%29.65 "Hg10 mi
10:20 PM61 °FClear.7 mph68%29.65 "Hg10 mi
9:50 PM61 °FSunny.8 mph68%29.68 "Hg10 mi
9:20 PM61 °FSunny.8 mph68%29.68 "Hg10 mi
8:50 PM63 °FSunny.8 mph59%29.68 "Hg10 mi
8:20 PM64 °FSunny.8 mph56%29.71 "Hg10 mi
7:50 PM66 °FSunny.5 mph49%29.71 "Hg10 mi
7:20 PM68 °FSunny.7 mph43%29.71 "Hg10 mi
Weather by CustomWeather, © 2015

See weather overviewHow to use our weather pages